Regional Weather Roundup
Issued by NWS

Home | Current Version | Previous Version | Text Only | Print | Product List | Glossary On
Versions: 1 2 3 4 5 6 7 8 9 10 11 12 13 14 15 16 17 18 19 20 21 22 23 24 25 26 27 28 29 30 31 32 33 34 35 36 37 38 39 40 41 42 43 44 45 46 47 48 49 50
386
ASUS43 KMPX 221610
RWRMN
WEATHER ROUNDUP FOR MINNESOTA
NATIONAL WEATHER SERVICE TWIN CITIES/CHANHASSEN MN
1000 AM CST WED FEB 22 2017


NOTE: "FAIR" INDICATES FEW OR NO CLOUDS BELOW 12,000 FEET WITH NO
SIGNIFICANT WEATHER AND/OR OBSTRUCTIONS TO VISIBILITY. N/A MEANS
CURRENT SKY AND/OR WEATHER CONDITIONS ARE NOT AVAILABLE.

MNZ060>063-068>070-221700-
   Twin Cities Metro

CITY           SKY/WX    TMP DP  RH WIND       PRES   REMARKS
TWIN CITIES    CLOUDY    47  41  80 CALM      29.60R
ST PAUL        CLOUDY    46  42  86 CALM      29.62R
CRYSTAL        CLOUDY    42  40  92 N3        29.59S FOG
BLAINE         CLOUDY    43  43 100 NW5       29.61R FOG
LAKEVILLE        N/A     43  39  87 CALM      29.60F
EDEN PRAIRIE   PTSUNNY   46  42  86 NE3       29.59S FOG
SOUTH ST PAUL  CLOUDY    45  41  86 CALM      29.60S
LAKE ELMO      FAIR      45  41  87 CALM      29.62R
$$
MNZ001>005-007-008-013>017-022>024-027-028-221700-
   Northwest Minnesota

CITY           SKY/WX    TMP DP  RH WIND       PRES   REMARKS
BEMIDJI        CLOUDY    35  33  95 N6        29.67R WCI  29
HALLOCK        CLOUDY    34  30  86 NE13      29.78S WCI  25
ROSEAU         LGT SNOW  32  27  80 N10       29.76S WCI  24
WARROAD        LGT SNOW  30  28  93 N9        29.76R WCI  22
THIEF RVR FALL CLOUDY    34  31  88 N13       29.73S WCI  25
CROOKSTON      MIX PCPN  34  34 100 N12       29.73S WCI  25
FOSSTON        RAIN      34  32  93 N10       29.69S WCI  26
DETROIT LAKES  FOG       34  34 100 N5        29.66S VSB 1   WCI  30
MOORHEAD       LGT RAIN  32  30  93 N13       29.67F VSB 1/4 WCI  22
PARK RAPIDS    CLOUDY    37  34  89 N6        29.64R FOG
MAHNOMEN       FOG       34  33  99 N9        29.67S VSB 1/4 WCI  26
$$
MNZ006-009>011-018-025>026-221700-
   North Central Minnesota

CITY           SKY/WX    TMP DP  RH WIND       PRES   REMARKS
BAUDETTE       FLURRIES  33  31  92 N6        29.72S WCI  28
FLAG ISLAND    CLOUDY    30  27  86 N14       29.76R WCI  20
INTL FALLS     CLOUDY    34  31  88 N8        29.70R WCI  27
WASKISH        CLOUDY    34  34 100 NE6       29.71R WCI  29
BIG FORK       CLOUDY    36  34  93 N3        29.66R
LONGVILLE      CLOUDY    36  36 100 N3        29.64S
GRAND RAPIDS   CLOUDY    37  35  92 N9        29.66R
CRANE LAKE     CLOUDY    34  32  93 N3        29.69R
ORR            CLOUDY    36  30  80 CALM      29.63R
COOK           CLOUDY    37  34  87 N3        29.65R
WALKER         CLOUDY    35  35  99 CALM      29.65S FOG
$$
MNZ012-019>021-037-221700-
   Northeast Minnesota

CITY           SKY/WX    TMP DP  RH WIND       PRES   REMARKS
DULUTH         MOSUNNY   43  38  82 CALM      29.61S
ELY            CLOUDY    36  32  87 NE5       29.63F
HIBBING        CLOUDY    38  35  89 N5        29.63R
EVELETH        CLOUDY    40  33  76 N3        29.64R
DULUTH HARBOR  CLOUDY    37  36  93 CALM      29.63F
TWO HARBORS    CLOUDY    46  37  71 E3        29.59F
SILVER BAY     MOSUNNY   43  36  75 NE3       29.60S
GRAND MARAIS     N/A     40  35  83 E3        29.63F
G MARAIS ARPRT CLOUDY    37  28  70 N9        29.61F
$$
MNZ029>031-032-039>041-046>048-054>057-064-221700-
   West Central Minnesota

CITY           SKY/WX    TMP DP  RH WIND       PRES   REMARKS
FERGUS FALLS   MOSUNNY   39  39 100 N5        29.67F
WHEATON        FOG       36  36 100 N8        29.64F VSB 3/4
MORRIS         MOSUNNY   39  37  93 NW9       29.61R
ALEXANDRIA     CLOUDY    40  37  89 NE8       29.61S
ELBOW LAKE     FAIR      38  36  93 CALM      29.63S
WADENA         CLOUDY    37  36  93 N8        29.63R
GLENWOOD       CLOUDY    39  37  93 NE9       29.60F
APPLETON       PTSUNNY   43  39  87 NE5       29.59F
BENSON         CLOUDY    41  36  81 NE6       29.60F
ORTONVILLE     CLOUDY    37  36  93 CALM      29.61S
MADISON        CLOUDY    43  43 100 NW8       29.60S
WILLMAR        FAIR      43  41  93 NE7       29.60S
$$
MNZ033>034-036-042>043-049>051-058-059-221700-
   Central Minnesota

CITY           SKY/WX    TMP DP  RH WIND       PRES   REMARKS
ST CLOUD       CLOUDY    38  38 100 CALM      29.61S
SAUK CENTRE    FAIR      38  37  95 NE5       29.62S
PAYNESVILLE    CLOUDY    39  39 100 N6        29.62R
AITKIN         CLOUDY    43  36  75 N5        29.61R
PINE RIVER     CLOUDY    37  37 100 N7        29.67S FOG
BRAINERD       CLOUDY    38  37  97 N7        29.61F
STAPLES        CLOUDY    37  37 100 N3        29.63R
LONG PRAIRIE   FAIR      36  36 100 CALM      29.62R
LITTLE FALLS   CLOUDY    37  36  93 CALM      29.62S
LITCHFIELD     CLOUDY    43  41  93 N3        29.59F
BUFFALO        LGT RAIN  40  39  96 NW6       29.61F
MAPLE LAKE     DRIZZLE   41  41 100 CALM      29.61S
HUTCHINSON     CLOUDY    44  43  97 N5        29.60F
$$
MNZ037-044-045-052-053-221700-
   East Central Minnesota

CITY           SKY/WX    TMP DP  RH WIND       PRES   REMARKS
PRINCETON      CLOUDY    39  39 100 CALM      29.62R
MORA           CLOUDY    36  36 100 CALM      29.63R
CAMBRIDGE      LGT RAIN  39  39 100 CALM      29.61R
RUSH CITY      CLOUDY    37  36  93 CALM      29.62R
MOOSE LAKE     CLOUDY    37  37 100 CALM      29.60S
HINCKLEY       FAIR      41  39  93 N5        29.62R
CLOQUET        PTSUNNY   41  37  87 CALM      29.61S
MCGREGOR       CLOUDY    39  37  93 CALM      29.63S
$$
MNZ071>073-080-081-089-090-097-098-221700-
   Southwest Minnesota

CITY           SKY/WX    TMP DP  RH WIND       PRES   REMARKS
MONTEVIDEO     CLOUDY    39  39 100 CALM      29.60F
GRANITE FALLS  PTSUNNY   43  41  93 CALM      29.62R
CANBY          PTSUNNY   42  40  95 NW5       29.62R
MARSHALL       CLOUDY    44  42  93 N9        29.61R
REDWOOD FALLS  CLOUDY    44  40  85 NW7       29.59F
OLIVIA         CLOUDY    41  39  93 E3        29.58S
PIPESTONE      PTSUNNY   46  37  71 CALM      29.61R
WINDOM         CLOUDY    46  37  71 W9        29.60F
WORTHINGTON    PTSUNNY   48  39  71 SW8       29.61F
JACKSON        MOSUNNY   50  37  62 W15       29.60F
TRACY          CLOUDY    48  42  79 NW17G24   29.62R
SLAYTON        CLOUDY    49  40  70 SW5       29.59F
$$
MNZ065>067-074>077-082>085-091>093-221700-
   South Central Minnesota

CITY           SKY/WX    TMP DP  RH WIND       PRES   REMARKS
MANKATO          N/A     43  38  82 NW3       29.60
NEW ULM        PTSUNNY   43  39  87 CALM      29.59S
ST JAMES       PTSUNNY   46  39  76 CALM      29.61S
FAIRMONT       SUNNY     47  40  76 NW8       29.60R
GLENCOE        CLOUDY    43  43 100 CALM      29.59F FOG
FARIBAULT      MOSUNNY   46  39  76 SW3       29.60F
OWATONNA       MOSUNNY   48  39  71 SW7       29.59F
WASECA         MOSUNNY   45  37  76 SW6       29.60F
ALBERT LEA     CLOUDY    52  39  62 W12G17    29.60R
$$
MNZ078>079-086>088-094>096-221700-
   Southeast Minnesota

CITY           SKY/WX    TMP DP  RH WIND       PRES   REMARKS
ROCHESTER      MOSUNNY   46  40  79 W9        29.61R
RED WING       CLOUDY    48  37  66 CALM      29.60S
STANTON        PTSUNNY   45  38  78 CALM      29.60S
DODGE CENTER   SUNNY     46  37  71 W8        29.60R
WINONA         SUNNY     50  36  57 W3        29.62S
AUSTIN         CLOUDY    46  37  71 SW6       29.59R
PRESTON        MOSUNNY   48  37  64 SW7       29.60S
$$
ABBREVIATIONS USED IN REMARKS
   TC - TEMPERATURES IN CELSIUS
  WCI - WIND CHILL INDEX
   HX - HEAT INDEX
  VSB - VISIBILITY
$$




USA.gov is the U.S. government's official web portal to all federal, state and local government web resources and services.